ATLAS 5 CENTAUR DEB, 43961

Orbit data source: Space-Track

ATLAS 5 CENTAUR DEB, 43961 is space debris in HEO originally from a launch on Wed, 17 Sep 2014 UTC launched from the Air Force Eastern Test Range (AFETR). Debris objects in space refer to the collection of defunct objects orbiting the Earth. Examples of debris include non-operational satellites, rocket bodies, and fragments generated from explosions, collisions, or faulty payload assembly.

Loading next visibility...
Identifier
43961, 2014-055Q
Orbit
HEO
Last TLE update
17 hours ago
Origin
Flag of USUnited Launch Alliance/Lockheed Martin (US)
Manufacturer
Unknown
Mission
Spacecraft
Bus & Motor
Unknown
Mass
Unknown
Launch date (UTC)
2014-09-17 (11 years ago)
Launch vehicle
Unknown
Launch site
Air Force Eastern Test Range (AFETR)
Object type
Payload
Rocket body
Debris
Shape & HBR
Unknown
Radar Cross Section
Small (<0.1 m²)

Expand to show TLE details & history

TLE from 17 hours ago
0 ATLAS 5 CENTAUR DEB
1 43961U 14055Q   25191.32113037 -.00000023  00000-0  00000-0 0  9992
2 43961  19.5757 175.8979 4882954 107.7948 309.8057  1.85314693 46351
Epoch: 2025-07-10T07:42Z
TLE epoch observation values (Epoch: 2025-07-10T07:42:25.663Z)
Latitude
-0.00001°
Longitude
131.75457°
Altitude
18,667.659 km
Speed
4.194 km/s
True Right ascension
11h 43m 24s
True Declination
0° 00' 00"
Sunlit
Object was in daylight at epoch
Visualization orbit readout
Latitude
-12.87086°
Longitude
-8.37795°
Altitude
20,117.979 km
Speed
3.981 km/s
Apparent Right ascension
02h 07m 28s
Apparent Declination
-18° 10' 19"
Sunlit
Object is in daylight
Visualization observer readout
Local Sidereal Time
12:44:33
Azimuth
314.545° NW
Elevation
-61.845°
Doppler factor
1
Orbital elements
Apogee altitude
35,294.266 km
Perigee altitude
7,949.637 km
Semi-major axis
28,000.088 km
Eccentricity
0.4883
Inclination
19.5757°
RAAN
175.8979°
Arg. of periapsis
107.7948°
True anomaly
Unknown
Mean anomaly
309.8057°
Eccentric anomaly
Unknown
Mean motion
0.46324 °/min
Orbital period
777.14 mins
BSTAR
0
Loading maneuver chart data...
Loading SW <> Apogee altitude chart data...

ATLAS 5 CENTAUR DEB Visibility forecast

Observer location: undefined°, undefined°

Span
Click to sort rows by Start time (UTC) header in descending order
Start Az.
Max El. time (UTC)
Max El. Az.
Max El.
End time (UTC)
End Az.
739 mins2025-07-11 11:36:19.462Z260.06° W2025-07-11 22:51:19.462Z152.191° SSE31.289°2025-07-11 23:55:19.462Z94.694° ESE
|